Location: Dehesa de la Cepeda
(40.6574°N, 4.3013°W)
Time: 10:33:55
(UTC+00:00)

Transit 2A Rocket - Pass Details

Date: 13 August 2021
Orbit: 586 x 917 km, 66.7° (Epoch: 24 September)

Event Time Altitude Azimuth Distance (km) Brightness Sun altitude
Rises 12:05:20 0° 235° (SW) 2,866 8.1 63.6°
Reaches altitude 10° 12:07:43 10° 245° (WSW) 2,000 7.4 63.7°
Maximum altitude 12:11:45 32° 309° (NW) 1,137 6.1 63.7°
Drops below altitude 10° 12:16:08 10° 13° (NNE) 2,173 7.2 63.8°
Sets 12:18:50 0° 23° (NNE) 3,157 7.9 63.8°
